KO4DYK Weather Reports


time (UTC)temp
C
wind
direction
speed
KPH
gust
KPH
rain 1hr
cm
rain 24hr
cm
rain mn
cm
humidity
%
barometer
mb
20260510202502 28 174 1.6 1.6 0.00 0.00 0.00 58 1019.9
20260510201959 28 165 0.0 1.6 0.00 0.00 0.00 51 1019.9
20260510201457 28 181 1.6 1.6 0.00 0.00 0.00 54 1020.1
20260510200953 28 151 0.0 1.6 0.00 0.00 0.00 51 1020.2
20260510200448 30 161 0.0 0.0 0.00 0.00 0.00 51 1020.2
20260510195946 30 157 0.0 0.0 0.00 0.00 0.00 48 1020.3
20260510195444 30 154 0.0 1.6 0.00 0.00 0.00 45 1020.3
20260510194939 30 155 0.0 0.0 0.00 0.00 0.00 47 1020.4
20260510194436 30 171 0.0 0.0 0.00 0.00 0.00 52 1020.2
20260510193931 30 169 0.0 0.0 0.00 0.00 0.00 51 1020.5
20260510193427 30 166 0.0 1.6 0.00 0.00 0.00 49 1020.2
20260510192922 30 149 0.0 0.0 0.00 0.00 0.00 53 1020.4
20260510192418 30 166 0.0 1.6 0.00 0.00 0.00 51 1020.4
20260510191914 31 164 1.6 1.6 0.00 0.00 0.00 49 1020.5
20260510191410 29 157 0.0 0.0 0.00 0.00 0.00 49 1020.5
20260510190907 29 16 4.8 4.8 0.00 0.00 0.00 50 1020.5
20260510190405 28 92 1.6 8.0 0.00 0.00 0.00 52 1020.4
20260510185901 28 182 1.6 3.2 0.00 0.00 0.00 50 1020.3
20260510185359 30 139 0.0 0.0 0.00 0.00 0.00 50 1020.5
20260510184856 30 188 0.0 0.0 0.00 0.00 0.00 49 1020.4
20260510184353 31 170 1.6 1.6 0.00 0.00 0.00 47 1020.3
20260510183852 30 165 0.0 1.6 0.00 0.00 0.00 45 1020.4
20260510183349 29 164 0.0 4.8 0.00 0.00 0.00 48 1020.4
20260510182844 30 156 4.8 4.8 0.00 0.00 0.00 46 1020.3
20260510182341 29 167 0.0 0.0 0.00 0.00 0.00 51 1020.3
20260510181836 30 206 1.6 4.8 0.00 0.00 0.00 48 1020.3
20260510181334 31 168 1.6 8.0 0.00 0.00 0.00 45 1020.2
20260510180830 31 134 3.2 3.2 0.00 0.00 0.00 47 1020.3
20260510180327 30 170 1.6 4.8 0.00 0.00 0.00 47 1020.4
20260510175824 30 170 0.0 4.8 0.00 0.00 0.00 50 1020.4
20260510175320 30 160 0.0 0.0 0.00 0.00 0.00 51 1020.7
20260510174816 28 168 1.6 4.8 0.00 0.00 0.00 53 1020.8
20260510174314 28 199 4.8 8.0 0.00 0.00 0.00 53 1020.8
20260510173810 29 178 0.0 0.0 0.00 0.00 0.00 49 1020.9
20260510173306 28 165 0.0 0.0 0.00 0.00 0.00 51 1021.0
20260510172802 27 166 0.0 0.0 0.00 0.00 0.00 61 1021.0
20260510172258 27 138 0.0 0.0 0.00 0.00 0.00 55 1021.0
20260510171755 28 124 0.0 8.0 0.00 0.00 0.00 55 1021.0
20260510171252 28 134 1.6 4.8 0.00 0.00 0.00 53 1021.1
20260510170749 28 73 4.8 8.0 0.00 0.00 0.00 55 1021.1
20260510170245 29 91 1.6 4.8 0.00 0.00 0.00 56 1021.2
20260510165741 29 142 0.0 1.6 0.00 0.00 0.00 54 1021.0
20260510165237 30 146 1.6 1.6 0.00 0.00 0.00 53 1021.1
20260510164734 28 138 0.0 3.2 0.00 0.00 0.00 58 1021.2
20260510164232 28 178 1.6 3.2 0.00 0.00 0.00 58 1021.1
20260510163732 28 159 1.6 4.8 0.00 0.00 0.00 60 1021.3
20260510163228 27 173 4.8 9.7 0.00 0.00 0.00 59 1021.2
20260510162727 27 235 3.2 3.2 0.00 0.00 0.00 63 1021.2
20260510162225 26 202 1.6 8.0 0.00 0.00 0.00 67 1021.1
20260510161720 27 55 4.8 9.7 0.00 0.00 0.00 66 1021.1
20260510161217 27 153 1.6 4.8 0.00 0.00 0.00 66 1021.1
20260510160714 27 168 0.0 8.0 0.00 0.00 0.00 67 1021.1
20260510160209 27 149 0.0 1.6 0.00 0.00 0.00 68 1021.1
20260510155705 26 170 1.6 4.8 0.00 0.00 0.00 72 1021.1
20260510155201 26 151 1.6 9.7 0.00 0.00 0.00 73 1021.0
20260510154657 27 187 3.2 3.2 0.00 0.00 0.00 70 1021.0
20260510154153 27 141 0.0 3.2 0.00 0.00 0.00 70 1021.0
20260510153648 27 162 0.0 1.6 0.00 0.00 0.00 74 1021.1
20260510153145 26 148 1.6 1.6 0.00 0.00 0.00 73 1021.0
20260510152642 25 185 1.6 3.2 0.00 0.00 0.00 77 1021.0
20260510152138 25 44 9.7 11.3 0.00 0.00 0.00 77 1021.1
20260510151634 25 176 3.2 3.2 0.00 0.00 0.00 76 1021.1
20260510151133 25 76 8.0 9.7 0.00 0.00 0.00 76 1021.0
20260510150628 25 164 1.6 3.2 0.00 0.00 0.00 77 1020.9
20260510150124 25 71 1.6 3.2 0.00 0.00 0.00 79 1020.9
20260510145620 25 27 3.2 8.0 0.00 0.00 0.00 80 1021.1
20260510145117 25 298 1.6 3.2 0.00 0.00 0.00 79 1020.9
20260510144613 25 136 0.0 12.9 0.00 0.00 0.00 80 1021.2
20260510144109 25 105 0.0 3.2 0.00 0.00 0.00 78 1021.0
20260510143605 25 158 0.0 4.8 0.00 0.00 0.00 79 1020.9
20260510143101 25 212 0.0 0.0 0.00 0.00 0.00 79 1020.9
20260510142558 25 113 0.0 1.6 0.00 0.00 0.00 80 1020.8
20260510142055 25 135 0.0 1.6 0.00 0.00 0.00 80 1020.7
20260510141552 24 168 1.6 1.6 0.00 0.00 0.00 83 1020.8
20260510141050 24 200 1.6 3.2 0.00 0.00 0.00 82 1020.8
20260510140545 23 137 0.0 1.6 0.00 0.00 0.00 85 1020.8
20260510140045 23 180 4.8 4.8 0.00 0.00 0.00 84 1021.0
20260510135541 23 151 1.6 3.2 0.00 0.00 0.00 87 1020.9
20260510135037 23 117 4.8 4.8 0.00 0.00 0.00 88 1020.9
20260510134534 22 162 0.0 3.2 0.00 0.00 0.00 91 1020.9
20260510134031 22 135 0.0 1.6 0.00 0.00 0.00 92 1020.8
20260510133527 21 147 0.0 0.0 0.00 0.00 0.00 94 1020.8
20260510133023 21 48 3.2 3.2 0.00 0.00 0.00 95 1020.9
20260510132520 21 124 1.6 1.6 0.00 0.00 0.00 97 1020.9
20260510132017 20 151 0.0 1.6 0.00 0.00 0.00 99 1020.8
20260510131515 20 153 0.0 0.0 0.00 0.00 0.00 99 1020.7
20260510131012 18 155 0.0 0.0 0.00 0.00 0.00 99 1020.8
20260510130508 18 144 0.0 1.6 0.00 0.00 0.00 99 1020.7
20260510130006 17 153 0.0 0.0 0.00 0.00 0.00 99 1020.5
20260510125501 16 139 0.0 3.2 0.00 0.00 0.00 99 1020.8
20260510124958 16 78 3.2 3.2 0.00 0.00 0.00 99 1020.5
20260510124454 15 136 1.6 1.6 0.00 0.00 0.00 99 1020.7
20260510123952 15 142 1.6 1.6 0.00 0.00 0.00 99 1020.5
20260510123447 15 137 1.6 1.6 0.00 0.00 0.00 99 1020.6
20260510122943 15 157 0.0 0.0 0.00 0.00 0.00 99 1020.6
20260510122439 14 162 0.0 0.0 0.00 0.00 0.00 99 1020.7
20260510121935 14 163 0.0 0.0 0.00 0.00 0.00 99 1020.6
20260510121433 13 163 0.0 0.0 0.00 0.00 0.00 99 1020.5
20260510120930 13 163 0.0 0.0 0.00 0.00 0.00 99 1020.4
20260510120427 12 163 0.0 0.0 0.00 0.00 0.00 99 1020.5
20260510115923 12 163 0.0 0.0 0.00 0.00 0.00 99 1020.2
20260510115420 12 168 0.0 0.0 0.00 0.00 0.00 99 1020.2
20260510114916 12 163 0.0 0.0 0.00 0.00 0.00 99 1020.0
20260510114414 12 163 0.0 0.0 0.00 0.00 0.00 99 1020.2
20260510113914 11 159 0.0 1.6 0.00 0.00 0.00 99 1020.1
20260510113410 11 150 0.0 1.6 0.00 0.00 0.00 99 1019.9
20260510112907 11 82 1.6 3.2 0.00 0.00 0.00 99 1019.7
20260510112404 11 132 1.6 1.6 0.00 0.00 0.00 99 1019.6
20260510111900 11 117 1.6 3.2 0.00 0.00 0.00 99 1019.4
20260510111356 11 119 1.6 1.6 0.00 0.00 0.00 99 1019.4
20260510110852 11 172 0.0 0.0 0.00 0.00 0.00 99 1019.4
20260510110349 11 178 0.0 0.0 0.00 0.00 0.00 99 1019.3
20260510105845 11 175 0.0 0.0 0.00 0.00 0.00 99 1019.2
20260510105344 11 172 0.0 0.0 0.00 0.00 0.00 99 1019.2
20260510104841 11 173 0.0 1.6 0.00 0.00 0.00 99 1019.2
20260510104338 11 172 0.0 1.6 0.00 0.00 0.00 99 1019.1
20260510103834 11 172 0.0 0.0 0.00 0.00 0.00 99 1019.0
20260510103331 10 172 0.0 0.0 0.00 0.00 0.00 99 1018.8
20260510102827 10 172 0.0 0.0 0.00 0.00 0.00 99 1018.8
20260510102323 10 172 0.0 0.0 0.00 0.00 0.00 99 1018.8
20260510101820 11 172 0.0 0.0 0.00 0.00 0.00 99 1018.8
20260510101318 11 172 0.0 0.0 0.00 0.00 0.00 99 1018.9
20260510100814 11 172 0.0 0.0 0.00 0.00 0.00 99 1018.8
20260510100312 10 172 0.0 0.0 0.00 0.00 0.00 99 1018.7
20260510095808 10 172 0.0 0.0 0.00 0.00 0.00 99 1018.6
20260510095305 10 172 0.0 0.0 0.00 0.00 0.00 99 1018.2
20260510094802 11 172 0.0 0.0 0.00 0.00 0.00 99 1018.4
20260510094258 11 172 0.0 0.0 0.00 0.00 0.00 99 1018.3
20260510093754 11 173 0.0 0.0 0.00 0.00 0.00 99 1018.1
20260510093251 11 172 0.0 0.0 0.00 0.00 0.00 99 1018.1
20260510092747 11 170 0.0 0.0 0.00 0.00 0.00 99 1018.3
20260510092243 11 169 0.0 0.0 0.00 0.00 0.00 99 1018.3
20260510091739 11 169 0.0 0.0 0.00 0.00 0.00 99 1018.2
20260510091236 11 164 0.0 0.0 0.00 0.00 0.00 99 1017.9
20260510090732 11 163 0.0 0.0 0.00 0.00 0.00 99 1018.0
20260510090230 11 140 0.0 0.0 0.00 0.00 0.00 99 1018.2
20260510085725 11 134 0.0 0.0 0.00 0.00 0.00 99 1018.1
20260510085219 11 178 0.0 0.0 0.00 0.00 0.00 99 1018.2
20260510084716 11 176 0.0 0.0 0.00 0.00 0.00 99 1018.1
20260510084213 11 175 0.0 0.0 0.00 0.00 0.00 99 1018.0
20260510083710 11 175 0.0 0.0 0.00 0.00 0.00 99 1018.0
20260510083207 11 175 0.0 0.0 0.00 0.00 0.00 99 1017.9
20260510082702 11 176 0.0 0.0 0.00 0.00 0.00 99 1017.9
20260510082158 11 175 0.0 0.0 0.00 0.00 0.00 99 1018.1
20260510081653 11 176 0.0 0.0 0.00 0.00 0.00 99 1017.8
20260510081149 11 174 0.0 0.0 0.00 0.00 0.00 99 1017.9
20260510080648 11 175 0.0 0.0 0.00 0.00 0.00 99 1017.8
20260510080146 11 174 0.0 0.0 0.00 0.00 0.00 99 1018.0
20260510075642 11 174 0.0 0.0 0.00 0.00 0.00 99 1018.0
20260510075140 11 175 0.0 0.0 0.00 0.00 0.00 99 1017.9
20260510074637 11 174 0.0 0.0 0.00 0.00 0.00 99 1018.0
20260510074132 11 174 0.0 0.0 0.00 0.00 0.00 99 1018.0
20260510073629 11 174 0.0 0.0 0.00 0.00 0.00 99 1018.0
20260510073125 11 175 0.0 0.0 0.00 0.00 0.00 99 1018.1
20260510072622 11 172 0.0 0.0 0.00 0.00 0.00 99 1018.0
20260510072118 11 172 0.0 0.0 0.00 0.00 0.00 99 1018.1
20260510071614 11 168 0.0 0.0 0.00 0.00 0.00 99 1018.0
20260510071112 11 164 0.0 0.0 0.00 0.00 0.00 99 1017.9
20260510070609 11 170 0.0 0.0 0.00 0.00 0.00 99 1017.8
20260510070107 11 170 0.0 0.0 0.00 0.00 0.00 99 1017.8
20260510065602 11 170 0.0 0.0 0.00 0.00 0.00 99 1017.8
20260510065059 11 170 0.0 0.0 0.00 0.00 0.00 99 1017.7
20260510064555 11 169 0.0 0.0 0.00 0.00 0.00 99 1017.6
20260510064052 11 167 0.0 0.0 0.00 0.00 0.00 99 1017.7
20260510063549 11 168 0.0 0.0 0.00 0.00 0.00 99 1017.6
20260510063046 11 166 0.0 0.0 0.00 0.00 0.00 99 1017.5
20260510062542 11 159 0.0 0.0 0.00 0.00 0.00 99 1017.4
20260510062037 11 173 0.0 0.0 0.00 0.00 0.00 99 1017.5
20260510061534 11 173 0.0 0.0 0.00 0.00 0.00 99 1017.5
20260510061030 11 173 0.0 0.0 0.00 0.00 0.00 99 1017.4
20260510060527 11 173 0.0 0.0 0.00 0.00 0.00 99 1017.5
20260510060023 11 172 0.0 0.0 0.00 0.00 0.00 99 1017.5
20260510055519 11 172 0.0 0.0 0.00 0.00 0.00 99 1017.5
20260510055018 11 167 0.0 0.0 0.00 0.00 0.00 99 1017.6
20260510054513 11 149 0.0 0.0 0.00 0.00 0.00 99 1017.5
20260510054008 11 171 0.0 0.0 0.00 0.00 0.00 99 1017.5
20260510053503 11 177 0.0 0.0 0.00 0.00 0.00 99 1017.2
20260510053000 12 174 0.0 0.0 0.00 0.00 0.00 99 1017.4
20260510052456 11 160 0.0 0.0 0.00 0.00 0.00 99 1017.4
20260510051952 11 183 0.0 0.0 0.00 0.00 0.00 99 1017.5
20260510051448 11 169 0.0 0.0 0.00 0.00 0.00 99 1017.4
20260510050944 12 175 0.0 0.0 0.00 0.00 0.00 99 1017.2
20260510050442 12 176 0.0 0.0 0.00 0.00 0.00 99 1017.2
20260510045939 12 173 0.0 0.0 0.00 0.00 0.00 99 1017.4
20260510045436 12 174 0.0 0.0 0.00 0.00 0.00 99 1017.4
20260510044933 12 187 0.0 0.0 0.00 0.00 0.00 99 1017.2
20260510044430 12 179 0.0 0.0 0.00 0.00 0.00 99 1017.4
20260510043926 12 177 0.0 0.0 0.00 0.00 0.00 99 1017.2
20260510043422 12 178 0.0 0.0 0.00 0.00 0.00 99 1017.2
20260510042921 12 178 0.0 0.0 0.00 0.00 0.00 98 1017.2
20260510042416 12 178 0.0 0.0 0.00 0.00 0.00 98 1017.2
20260510041912 12 178 0.0 0.0 0.00 0.00 0.00 98 1017.2
20260510041409 12 177 0.0 0.0 0.00 0.00 0.00 98 1017.5
20260510040907 12 177 0.0 0.0 0.00 0.00 0.00 98 1017.5
20260510040404 12 178 0.0 0.0 0.00 0.00 0.00 97 1017.4
20260510035859 12 178 0.0 0.0 0.00 0.00 0.00 97 1017.4
20260510035355 12 178 0.0 0.0 0.00 0.00 0.00 96 1017.4
20260510034851 13 178 0.0 0.0 0.00 0.00 0.00 96 1017.6
20260510034349 13 178 0.0 0.0 0.00 0.00 0.00 96 1017.6
20260510033845 13 177 0.0 0.0 0.00 0.00 0.00 96 1017.6
20260510033342 13 177 0.0 0.0 0.00 0.00 0.00 96 1017.6
20260510032838 13 177 0.0 0.0 0.00 0.00 0.00 96 1017.6
20260510032335 13 177 0.0 0.0 0.00 0.00 0.00 95 1017.5
20260510031831 13 177 0.0 0.0 0.00 0.00 0.00 95 1017.5
20260510031327 13 177 0.0 0.0 0.00 0.00 0.00 94 1017.7
20260510030827 13 177 0.0 0.0 0.00 0.00 0.00 94 1017.7
20260510030323 13 177 0.0 0.0 0.00 0.00 0.00 93 1017.6
20260510025820 13 177 0.0 0.0 0.00 0.00 0.00 93 1017.4
20260510025318 14 177 0.0 0.0 0.00 0.00 0.00 93 1017.4
20260510024814 14 176 0.0 0.0 0.00 0.00 0.00 92 1017.4
20260510024312 14 172 0.0 0.0 0.00 0.00 0.00 92 1017.1
20260510023808 14 172 0.0 0.0 0.00 0.00 0.00 92 1017.1
20260510023304 14 172 0.0 0.0 0.00 0.00 0.00 91 1017.1
20260510022801 15 172 0.0 0.0 0.00 0.00 0.00 90 1016.9
20260510022300 15 172 0.0 0.0 0.00 0.00 0.00 90 1016.9
20260510021800 15 172 0.0 0.0 0.00 0.00 0.00 89 1016.8
20260510021258 15 172 0.0 0.0 0.00 0.00 0.00 87 1016.8
20260510020754 15 172 0.0 0.0 0.00 0.00 0.00 86 1016.6
20260510020253 16 172 0.0 0.0 0.00 0.00 0.00 85 1016.5
20260510015750 16 172 0.0 0.0 0.00 0.00 0.00 84 1016.6
20260510015247 16 171 0.0 0.0 0.00 0.00 0.00 84 1016.3
20260510014741 16 171 0.0 0.0 0.00 0.00 0.00 84 1016.5
20260510014239 16 171 0.0 0.0 0.00 0.00 0.00 82 1016.2
20260510013735 17 171 0.0 0.0 0.00 0.00 0.00 81 1016.1
20260510013230 16 171 0.0 0.0 0.00 0.00 0.00 80 1016.1
20260510012725 17 171 0.0 0.0 0.00 0.00 0.00 78 1016.0
20260510012221 17 171 0.0 0.0 0.00 0.00 0.00 78 1015.9
20260510011720 17 169 0.0 0.0 0.00 0.00 0.00 76 1016.0
20260510011216 18 169 0.0 0.0 0.00 0.00 0.00 74 1015.8
20260510010713 18 169 0.0 0.0 0.00 0.00 0.00 74 1015.8
20260510010209 18 169 0.0 0.0 0.00 0.00 0.00 72 1015.7
20260510005706 18 169 0.0 0.0 0.00 0.00 0.00 72 1015.6
20260510005202 19 169 0.0 0.0 0.00 0.00 0.00 71 1015.7
20260510004701 20 169 0.0 0.0 0.00 0.00 0.00 69 1015.7
20260510004159 20 168 0.0 0.0 0.00 0.00 0.00 68 1015.5
20260510003656 20 167 0.0 0.0 0.00 0.00 0.00 65 1015.4
20260510003152 20 167 0.0 0.0 0.00 0.00 0.00 64 1015.2
20260510002651 21 167 0.0 0.0 0.00 0.00 0.00 63 1015.4
20260510002149 21 167 0.0 0.0 0.00 0.00 0.00 61 1015.1
20260510001646 22 164 0.0 0.0 0.00 0.00 0.00 59 1015.3
20260510001144 22 164 0.0 0.0 0.00 0.00 0.00 55 1015.1
20260510000644 22 164 0.0 0.0 0.00 0.00 0.00 55 1015.2
20260510000142 23 164 0.0 0.0 0.00 0.00 0.00 54 1015.2
20260509235638 23 164 0.0 0.0 0.00 0.00 0.00 50 1015.0
20260509235135 23 163 0.0 0.0 0.00 0.00 0.00 49 1015.0
20260509234631 24 165 0.0 0.0 0.00 0.00 0.00 49 1015.2
20260509234129 25 164 0.0 0.0 0.00 0.00 0.00 46 1015.0
20260509233626 25 161 0.0 0.0 0.00 0.00 0.00 46 1015.1
20260509233124 25 143 0.0 1.6 0.00 0.00 0.00 45 1015.2
20260509232620 25 153 0.0 1.6 0.00 0.00 0.00 44 1015.0
20260509232117 25 114 1.6 1.6 0.00 0.00 0.00 45 1015.0
20260509231613 25 138 1.6 1.6 0.00 0.00 0.00 44 1015.0
20260509231111 25 84 1.6 1.6 0.00 0.00 0.00 42 1014.9
20260509230608 25 134 1.6 1.6 0.00 0.00 0.00 43 1014.9
20260509230105 25 128 1.6 3.2 0.00 0.00 0.00 43 1014.8
20260509225600 25 161 0.0 8.0 0.00 0.00 0.00 43 1014.6
20260509225056 26 57 4.8 9.7 0.00 0.00 0.00 41 1014.8
20260509224551 26 72 4.8 4.8 0.00 0.00 0.00 42 1014.6
20260509224049 26 83 1.6 8.0 0.00 0.00 0.00 44 1014.4
20260509223546 26 59 3.2 4.8 0.00 0.00 0.00 44 1014.7
20260509223043 26 78 4.8 8.0 0.00 0.00 0.00 42 1014.6
20260509222539 26 75 3.2 8.0 0.00 0.00 0.00 44 1014.5
20260509222036 26 170 0.0 0.0 0.00 0.00 0.00 43 1014.6
20260509221531 27 62 4.8 8.0 0.00 0.00 0.00 42 1014.7
20260509221027 28 167 0.0 0.0 0.00 0.00 0.00 40 1014.6
20260509220523 28 177 0.0 1.6 0.00 0.00 0.00 39 1014.8
20260509220020 27 167 0.0 1.6 0.00 0.00 0.00 41 1015.0
20260509215515 28 113 1.6 4.8 0.00 0.00 0.00 42 1014.7
20260509215013 28 161 0.0 1.6 0.00 0.00 0.00 40 1014.5
20260509214510 28 190 1.6 4.8 0.00 0.00 0.00 39 1014.8
20260509214007 28 162 0.0 1.6 0.00 0.00 0.00 39 1014.7
20260509213502 27 173 0.0 3.2 0.00 0.00 0.00 40 1014.8
20260509213000 27 187 0.0 1.6 0.00 0.00 0.00 41 1014.7
20260509212457 27 160 0.0 3.2 0.00 0.00 0.00 41 1014.8
20260509211953 26 63 3.2 8.0 0.00 0.00 0.00 41 1014.8
20260509211448 27 34 4.8 9.7 0.00 0.00 0.00 41 1015.0
20260509210946 28 62 6.4 9.7 0.00 0.00 0.00 40 1015.0
20260509210443 27 127 1.6 3.2 0.00 0.00 0.00 40 1014.8
20260509205938 27 45 4.8 8.0 0.00 0.00 0.00 40 1015.0
20260509205433 28 45 3.2 3.2 0.00 0.00 0.00 41 1014.8
20260509204929 27 62 3.2 4.8 0.00 0.00 0.00 42 1014.7
20260509204425 27 109 3.2 4.8 0.00 0.00 0.00 40 1015.0
20260509203922 28 32 4.8 9.7 0.00 0.00 0.00 39 1014.7
20260509203418 27 170 0.0 3.2 0.00 0.00 0.00 39 1014.9
20260509202916 27 84 3.2 8.0 0.00 0.00 0.00 38 1014.9